QPF
0.00 0.00 0.00 0.00 0.00 0.00 0.00 0.00 0.00 0.00 0.00 0.00 0.00 0.00 0.00 0.00 0.00 0.00 0.00 0.01 0.01 0.01 0.01 0.01 0.02 0.01 0.02 0.03 0.03 0.04 0.05 0.05 0.06 0.07 0.04 0.04 0.03 0.04 0.04 0.04 0.04 0.05 0.04
0.00 0.00 0.00 0.00 0.00 0.00 0.00 0.00 0.00 0.00 0.00 0.00 0.00 0.00 0.00 0.00 0.00 0.01 0.01 0.01 0.01 0.01 0.01 0.02 0.02 0.01 0.02 0.03 0.03 0.04 0.05 0.05 0.04 0.06 0.06 0.05 0.04 0.03 0.04 0.04 0.03 0.03 0.03
0.00 0.00 0.00 0.00 0.00 0.00 0.00 0.00 0.00 0.00 0.00 0.00 0.01 0.00 0.00 0.00 0.00 0.01 0.01 0.02 0.01 0.01 0.01 0.02 0.02 0.02 0.02 0.02 0.02 0.03 0.04 0.04 0.04 0.04 0.05 0.05 0.05 0.05 0.04 0.04 0.04 0.04 0.02
0.00 0.00 0.00 0.00 0.00 0.00 0.00 0.00 0.00 0.00 0.00 0.00 0.00 0.00 0.00 0.00 0.00 0.01 0.01 0.01 0.01 0.01 0.02 0.02 0.02 0.02 0.02 0.02 0.02 0.02 0.03 0.03 0.03 0.03 0.04 0.04 0.04 0.04 0.04 0.04 0.05 0.04 0.03
0.00 0.00 0.00 0.00 0.00 0.00 0.00 0.00 0.00 0.00 0.00 0.00 0.00 0.00 0.00 0.00 0.00 0.01 0.02 0.01 0.02 0.01 0.02 0.01 0.01 0.02 0.02 0.02 0.02 0.03 0.04 0.04 0.03 0.03 0.03 0.03 0.04 0.04 0.04 0.04 0.05 0.05 0.04
0.00 0.00 0.00 0.00 0.00 0.00 0.00 0.00 0.00 0.00 0.00 0.00 0.00 0.00 0.00 0.00 0.00 0.01 0.01 0.01 0.01 0.01 0.01 0.01 0.01 0.01 0.02 0.01 0.02 0.03 0.04 0.05 0.04 0.04 0.04 0.04 0.04 0.04 0.04 0.03 0.04 0.05 0.05
0.00 0.00 0.00 0.00 0.00 0.00 0.00 0.00 0.00 0.00 0.00 0.00 0.00 0.00 0.00 0.00 0.00 0.00 0.00 0.00 0.01 0.01 0.01 0.02 0.01 0.01 0.02 0.02 0.02 0.02 0.03 0.03 0.03 0.04 0.03 0.04 0.05 0.05 0.04 0.03 0.03 0.04 0.04
0.00 0.00 0.00 0.00 0.00 0.00 0.00 0.00 0.00 0.00 0.00 0.00 0.00 0.00 0.00 0.00 0.00 0.00 0.00 0.00 0.00 0.01 0.01 0.01 0.01 0.01 0.01 0.02 0.01 0.01 0.02 0.03 0.03 0.03 0.03 0.03 0.04 0.06 0.06 0.05 0.05 0.04 0.03
0.00 0.00 0.00 0.00 0.00 0.00 0.00 0.00 0.00 0.00 0.00 0.00 0.00 0.00 0.00 0.00 0.00 0.00 0.00 0.00 0.00 0.00 0.01 0.01 0.00 0.00 0.01 0.01 0.01 0.01 0.01 0.01 0.01 0.01 0.01 0.02 0.02 0.03 0.04 0.05 0.05 0.05 0.03
0.00 0.00 0.00 0.00 0.00 0.00 0.00 0.00 0.00 0.00 0.00 0.00 0.00 0.00 0.00 0.00 0.00 0.00 0.00 0.00 0.00 0.00 0.00 0.00 0.00 0.00 0.01 0.02 0.01 0.01 0.01 0.01 0.01 0.01 0.01 0.01 0.03 0.03 0.04 0.04 0.05 0.05 0.04
0.00 0.00 0.00 0.00 0.00 0.00 0.00 0.00 0.00 0.00 0.00 0.00 0.00 0.00 0.00 0.00 0.00 0.00 0.00 0.00 0.00 0.00 0.00 0.00 0.00 0.00 0.01 0.02 0.00 0.00 0.01 0.00 0.01 0.01 0.02 0.03 0.03 0.03 0.03 0.03 0.05 0.06 0.06
0.00 0.00 0.00 0.00 0.00 0.00 0.00 0.00 0.00 0.00 0.00 0.00 0.00 0.00 0.00 0.00 0.00 0.00 0.00 0.00 0.00 0.00 0.00 0.01 0.00 0.00 0.01 0.02 0.01 0.01 0.01 0.00 0.01 0.01 0.02 0.02 0.02 0.02 0.03 0.04 0.04 0.04 0.06
0.00 0.00 0.00 0.00 0.00 0.00 0.00 0.00 0.00 0.00 0.00 0.00 0.00 0.00 0.00 0.00 0.00 0.00 0.00 0.00 0.00 0.00 0.00 0.00 0.00 0.00 0.01 0.02 0.02 0.02 0.02 0.01 0.01 0.01 0.02 0.02 0.01 0.01 0.02 0.02 0.03 0.03 0.04
0.00 0.00 0.00 0.00 0.00 0.00 0.00 0.00 0.00 0.00 0.00 0.00 0.00 0.00 0.00 0.00 0.00 0.00 0.00 0.00 0.00 0.00 0.00 0.00 0.00 0.00 0.00 0.01 0.02 0.03 0.03 0.03 0.02 0.01 0.02 0.02 0.02 0.01 0.01 0.01 0.02 0.02 0.02
0.00 0.00 0.00 0.00 0.00 0.00 0.00 0.00 0.00 0.00 0.00 0.00 0.00 0.00 0.00 0.00 0.00 0.00 0.00 0.00 0.00 0.00 0.00 0.00 0.00 0.00 0.00 0.00 0.01 0.01 0.02 0.02 0.02 0.01 0.01 0.01 0.01 0.01 0.02 0.02 0.03 0.03 0.04
0.00 0.00 0.00 0.00 0.00 0.00 0.00 0.00 0.00 0.00 0.00 0.00 0.00 0.00 0.00 0.00 0.00 0.00 0.00 0.00 0.00 0.00 0.00 0.00 0.00 0.00 0.00 0.00 0.00 0.01 0.01 0.01 0.01 0.02 0.02 0.02 0.02 0.02 0.03 0.04 0.04 0.05 0.04
0.00 0.00 0.00 0.00 0.00 0.00 0.00 0.00 0.00 0.00 0.00 0.00 0.00 0.00 0.00 0.00 0.00 0.00 0.00 0.00 0.00 0.00 0.00 0.00 0.00 0.00 0.00 0.00 0.00 0.00 0.00 0.00 0.01 0.02 0.02 0.02 0.03 0.03 0.04 0.05 0.05 0.05 0.05
0.00 0.00 0.00 0.00 0.00 0.00 0.00 0.00 0.00 0.00 0.00 0.00 0.00 0.00 0.00 0.00 0.00 0.00 0.00 0.00 0.00 0.00 0.00 0.00 0.00 0.00 0.00 0.00 0.00 0.00 0.00 0.00 0.00 0.01 0.01 0.01 0.02 0.02 0.03 0.03 0.04 0.04 0.05
0.00 0.00 0.00 0.00 0.00 0.00 0.00 0.00 0.00 0.00 0.00 0.00 0.00 0.00 0.00 0.00 0.00 0.00 0.00 0.00 0.00 0.00 0.00 0.00 0.00 0.00 0.00 0.00 0.00 0.00 0.00 0.00 0.01 0.01 0.01 0.01 0.01 0.01 0.01 0.02 0.03 0.04 0.04
0.00 0.00 0.00 0.00 0.00 0.00 0.00 0.00 0.00 0.00 0.00 0.00 0.00 0.00 0.00 0.00 0.00 0.00 0.00 0.00 0.00 0.00 0.00 0.00 0.00 0.00 0.00 0.00 0.00 0.00 0.00 0.00 0.00 0.01 0.02 0.02 0.01 0.01 0.01 0.01 0.01 0.02 0.02
0.00 0.00 0.00 0.00 0.00 0.00 0.00 0.00 0.00 0.00 0.00 0.00 0.00 0.00 0.00 0.00 0.00 0.00 0.00 0.00 0.00 0.00 0.00 0.00 0.00 0.00 0.00 0.00 0.00 0.00 0.00 0.00 0.00 0.00 0.01 0.01 0.00 0.00 0.00 0.01 0.02 0.02 0.02
0.00 0.00 0.00 0.00 0.00 0.00 0.00 0.00 0.00 0.00 0.00 0.00 0.00 0.00 0.00 0.00 0.00 0.00 0.00 0.00 0.00 0.00 0.00 0.00 0.00 0.00 0.00 0.00 0.00 0.00 0.00 0.00 0.00 0.00 0.00 0.00 0.00 0.00 0.00 0.01 0.01 0.01 0.01
0.00 0.00 0.00 0.00 0.00 0.00 0.00 0.00 0.00 0.00 0.00 0.00 0.00 0.00 0.00 0.00 0.00 0.00 0.00 0.00 0.00 0.00 0.00 0.00 0.00 0.00 0.00 0.00 0.00 0.00 0.00 0.00 0.00 0.00 0.00 0.00 0.00 0.00 0.00 0.00 0.00 0.00 0.01
0.00 0.00 0.00 0.00 0.00 0.00 0.00 0.00 0.00 0.00 0.00 0.00 0.00 0.00 0.00 0.00 0.00 0.00 0.00 0.00 0.00 0.01 0.00 0.00 0.00 0.00 0.00 0.00 0.00 0.00 0.00 0.00 0.00 0.00 0.00 0.01 0.01 0.01 0.01 0.01 0.01 0.01 0.01
0.00 0.00 0.00 0.00 0.00 0.00 0.00 0.00 0.00 0.00 0.00 0.00 0.00 0.00 0.00 0.00 0.00 0.00 0.00 0.00 0.00 0.00 0.00 0.00 0.00 0.00 0.00 0.00 0.00 0.00 0.00 0.00 0.00 0.00 0.01 0.01 0.01 0.01 0.01 0.01 0.01 0.01 0.01
0.00 0.00 0.00 0.00 0.00 0.00 0.00 0.00 0.00 0.00 0.00 0.00 0.00 0.00 0.00 0.00 0.00 0.00 0.00 0.00 0.00 0.00 0.00 0.00 0.00 0.00 0.00 0.00 0.00 0.00 0.00 0.00 0.00 0.00 0.01 0.01 0.01 0.01 0.01 0.01 0.01 0.01 0.01
MSLP
1012.78 1013.05 1013.31 1013.53 1013.68 1013.77 1013.79 1013.78 1013.73 1013.68 1013.64 1013.62 1013.61 1013.61 1013.60 1013.56 1013.49 1013.38 1013.24 1013.07 1012.90 1012.73 1012.60 1012.49 1012.43 1012.39 1012.39 1012.39 1012.40 1012.38 1012.33 1012.25 1012.12 1011.95 1011.75 1011.54 1011.33 1011.15 1011.01 1010.93 1010.90 1010.93 1011.02
1012.31 1012.61 1012.90 1013.16 1013.36 1013.49 1013.56 1013.58 1013.56 1013.54 1013.53 1013.53 1013.54 1013.56 1013.58 1013.57 1013.53 1013.45 1013.34 1013.19 1013.03 1012.87 1012.73 1012.62 1012.55 1012.52 1012.52 1012.54 1012.55 1012.56 1012.52 1012.44 1012.31 1012.13 1011.91 1011.66 1011.41 1011.18 1010.98 1010.83 1010.73 1010.69 1010.69
1011.85 1012.19 1012.51 1012.80 1013.04 1013.21 1013.31 1013.36 1013.38 1013.38 1013.39 1013.40 1013.44 1013.48 1013.52 1013.54 1013.53 1013.47 1013.38 1013.25 1013.11 1012.96 1012.82 1012.72 1012.65 1012.62 1012.63 1012.66 1012.69 1012.70 1012.67 1012.60 1012.46 1012.27 1012.04 1011.77 1011.49 1011.22 1010.98 1010.77 1010.61 1010.48 1010.40
1011.42 1011.79 1012.14 1012.46 1012.72 1012.92 1013.05 1013.12 1013.16 1013.18 1013.20 1013.24 1013.29 1013.35 1013.40 1013.44 1013.44 1013.41 1013.33 1013.22 1013.09 1012.96 1012.83 1012.74 1012.68 1012.66 1012.68 1012.71 1012.74 1012.75 1012.73 1012.65 1012.52 1012.32 1012.09 1011.81 1011.53 1011.24 1010.97 1010.73 1010.52 1010.32 1010.15
1011.00 1011.40 1011.78 1012.12 1012.39 1012.60 1012.74 1012.83 1012.88 1012.92 1012.95 1013.00 1013.06 1013.13 1013.19 1013.24 1013.25 1013.23 1013.17 1013.07 1012.95 1012.83 1012.72 1012.64 1012.59 1012.58 1012.60 1012.63 1012.66 1012.67 1012.64 1012.57 1012.43 1012.25 1012.02 1011.76 1011.49 1011.21 1010.94 1010.68 1010.43 1010.18 1009.94
1010.60 1011.02 1011.42 1011.76 1012.03 1012.23 1012.38 1012.47 1012.53 1012.57 1012.62 1012.67 1012.74 1012.81 1012.87 1012.92 1012.93 1012.91 1012.85 1012.77 1012.66 1012.55 1012.46 1012.39 1012.35 1012.35 1012.37 1012.40 1012.43 1012.43 1012.40 1012.33 1012.20 1012.03 1011.82 1011.59 1011.34 1011.08 1010.83 1010.57 1010.30 1010.03 1009.73
1010.21 1010.65 1011.04 1011.37 1011.63 1011.83 1011.96 1012.05 1012.11 1012.15 1012.21 1012.26 1012.33 1012.40 1012.46 1012.49 1012.50 1012.47 1012.41 1012.32 1012.22 1012.12 1012.04 1011.98 1011.96 1011.96 1011.99 1012.02 1012.04 1012.05 1012.02 1011.94 1011.83 1011.68 1011.49 1011.29 1011.07 1010.84 1010.61 1010.36 1010.10 1009.80 1009.47
1009.84 1010.28 1010.67 1010.98 1011.22 1011.39 1011.51 1011.59 1011.65 1011.70 1011.76 1011.82 1011.88 1011.94 1011.98 1012.00 1011.99 1011.94 1011.87 1011.77 1011.67 1011.58 1011.50 1011.46 1011.45 1011.46 1011.50 1011.54 1011.56 1011.57 1011.54 1011.47 1011.36 1011.23 1011.06 1010.88 1010.69 1010.48 1010.27 1010.03 1009.77 1009.47 1009.12
1009.49 1009.93 1010.31 1010.60 1010.82 1010.98 1011.09 1011.16 1011.22 1011.28 1011.34 1011.40 1011.46 1011.50 1011.53 1011.52 1011.49 1011.41 1011.32 1011.21 1011.10 1011.01 1010.94 1010.91 1010.91 1010.94 1010.99 1011.03 1011.07 1011.07 1011.05 1010.98 1010.88 1010.75 1010.59 1010.42 1010.23 1010.03 1009.82 1009.59 1009.32 1009.01 1008.65
1009.18 1009.62 1009.98 1010.27 1010.47 1010.62 1010.73 1010.81 1010.88 1010.95 1011.02 1011.09 1011.14 1011.18 1011.19 1011.16 1011.09 1010.98 1010.86 1010.73 1010.61 1010.51 1010.45 1010.42 1010.44 1010.48 1010.54 1010.60 1010.64 1010.65 1010.62 1010.56 1010.45 1010.31 1010.14 1009.95 1009.75 1009.53 1009.30 1009.05 1008.76 1008.44 1008.07
1008.92 1009.36 1009.72 1010.00 1010.21 1010.37 1010.49 1010.59 1010.68 1010.78 1010.87 1010.95 1011.01 1011.04 1011.03 1010.97 1010.87 1010.74 1010.59 1010.43 1010.29 1010.18 1010.11 1010.09 1010.11 1010.16 1010.23 1010.30 1010.34 1010.36 1010.33 1010.25 1010.13 1009.96 1009.77 1009.55 1009.31 1009.05 1008.78 1008.49 1008.17 1007.82 1007.43
1008.67 1009.13 1009.50 1009.80 1010.03 1010.22 1010.38 1010.52 1010.65 1010.78 1010.90 1011.01 1011.08 1011.11 1011.09 1011.01 1010.89 1010.73 1010.54 1010.36 1010.19 1010.06 1009.98 1009.96 1009.97 1010.03 1010.10 1010.17 1010.22 1010.23 1010.19 1010.09 1009.95 1009.75 1009.51 1009.25 1008.95 1008.64 1008.32 1007.97 1007.60 1007.21 1006.80
1008.43 1008.92 1009.32 1009.66 1009.93 1010.17 1010.38 1010.57 1010.76 1010.94 1011.10 1011.24 1011.33 1011.37 1011.35 1011.27 1011.12 1010.94 1010.72 1010.51 1010.32 1010.17 1010.07 1010.03 1010.04 1010.08 1010.14 1010.21 1010.25 1010.24 1010.19 1010.08 1009.90 1009.67 1009.39 1009.07 1008.73 1008.36 1007.97 1007.57 1007.15 1006.72 1006.28
1008.15 1008.68 1009.14 1009.53 1009.86 1010.16 1010.43 1010.69 1010.94 1011.18 1011.39 1011.57 1011.70 1011.76 1011.75 1011.66 1011.51 1011.31 1011.08 1010.84 1010.63 1010.45 1010.33 1010.26 1010.24 1010.27 1010.31 1010.36 1010.38 1010.36 1010.29 1010.16 1009.96 1009.70 1009.38 1009.02 1008.63 1008.21 1007.78 1007.33 1006.87 1006.40 1005.93
1007.81 1008.39 1008.91 1009.36 1009.76 1010.13 1010.47 1010.80 1011.12 1011.42 1011.68 1011.91 1012.07 1012.16 1012.17 1012.09 1011.95 1011.74 1011.51 1011.26 1011.02 1010.82 1010.67 1010.57 1010.52 1010.52 1010.54 1010.55 1010.55 1010.52 1010.42 1010.27 1010.05 1009.77 1009.44 1009.06 1008.64 1008.20 1007.74 1007.26 1006.78 1006.28 1005.78
1007.36 1008.01 1008.59 1009.11 1009.58 1010.02 1010.43 1010.82 1011.19 1011.54 1011.86 1012.13 1012.33 1012.45 1012.49 1012.44 1012.31 1012.12 1011.89 1011.64 1011.39 1011.18 1011.00 1010.87 1010.79 1010.75 1010.73 1010.72 1010.69 1010.63 1010.52 1010.36 1010.13 1009.84 1009.51 1009.12 1008.71 1008.27 1007.80 1007.33 1006.84 1006.34 1005.82
1006.83 1007.53 1008.17 1008.76 1009.29 1009.78 1010.24 1010.68 1011.10 1011.49 1011.85 1012.15 1012.39 1012.55 1012.63 1012.61 1012.52 1012.35 1012.14 1011.90 1011.66 1011.43 1011.24 1011.09 1010.98 1010.90 1010.85 1010.81 1010.75 1010.66 1010.54 1010.36 1010.14 1009.86 1009.53 1009.17 1008.77 1008.35 1007.91 1007.46 1006.99 1006.50 1005.99
1006.23 1006.98 1007.67 1008.30 1008.88 1009.41 1009.91 1010.38 1010.83 1011.24 1011.63 1011.96 1012.23 1012.42 1012.54 1012.56 1012.51 1012.39 1012.21 1012.00 1011.77 1011.55 1011.35 1011.19 1011.05 1010.95 1010.86 1010.79 1010.70 1010.59 1010.46 1010.28 1010.05 1009.79 1009.48 1009.15 1008.78 1008.40 1008.00 1007.58 1007.14 1006.68 1006.18
1005.62 1006.41 1007.13 1007.79 1008.39 1008.95 1009.46 1009.94 1010.39 1010.82 1011.21 1011.56 1011.86 1012.08 1012.24 1012.31 1012.30 1012.23 1012.09 1011.92 1011.72 1011.52 1011.33 1011.16 1011.01 1010.89 1010.78 1010.68 1010.57 1010.44 1010.29 1010.11 1009.89 1009.63 1009.35 1009.04 1008.72 1008.37 1008.01 1007.63 1007.23 1006.80 1006.33
1005.07 1005.87 1006.61 1007.28 1007.89 1008.44 1008.94 1009.42 1009.86 1010.28 1010.67 1011.03 1011.34 1011.59 1011.78 1011.90 1011.94 1011.92 1011.84 1011.71 1011.55 1011.38 1011.21 1011.04 1010.89 1010.76 1010.63 1010.51 1010.38 1010.24 1010.08 1009.89 1009.67 1009.43 1009.16 1008.87 1008.57 1008.26 1007.93 1007.59 1007.22 1006.82 1006.37
1004.63 1005.43 1006.16 1006.83 1007.42 1007.95 1008.43 1008.88 1009.31 1009.71 1010.09 1010.44 1010.76 1011.03 1011.25 1011.40 1011.50 1011.53 1011.50 1011.42 1011.30 1011.17 1011.02 1010.87 1010.72 1010.59 1010.45 1010.32 1010.18 1010.03 1009.86 1009.66 1009.45 1009.21 1008.95 1008.67 1008.39 1008.09 1007.79 1007.46 1007.12 1006.73 1006.30
1004.35 1005.12 1005.83 1006.47 1007.04 1007.54 1007.99 1008.40 1008.79 1009.17 1009.53 1009.87 1010.19 1010.47 1010.72 1010.91 1011.04 1011.12 1011.13 1011.10 1011.03 1010.92 1010.80 1010.67 1010.54 1010.40 1010.27 1010.14 1009.99 1009.84 1009.66 1009.46 1009.24 1009.01 1008.75 1008.48 1008.20 1007.91 1007.61 1007.29 1006.95 1006.58 1006.16
1004.23 1004.97 1005.64 1006.24 1006.76 1007.22 1007.63 1008.01 1008.36 1008.71 1009.05 1009.38 1009.69 1009.99 1010.25 1010.46 1010.63 1010.74 1010.79 1010.79 1010.75 1010.68 1010.58 1010.46 1010.34 1010.22 1010.09 1009.96 1009.82 1009.67 1009.49 1009.30 1009.08 1008.84 1008.59 1008.31 1008.03 1007.73 1007.43 1007.11 1006.77 1006.40 1005.98
1004.24 1004.94 1005.56 1006.11 1006.59 1007.00 1007.37 1007.71 1008.03 1008.35 1008.66 1008.98 1009.29 1009.59 1009.86 1010.09 1010.28 1010.41 1010.48 1010.51 1010.49 1010.43 1010.34 1010.24 1010.13 1010.01 1009.90 1009.77 1009.64 1009.49 1009.33 1009.14 1008.93 1008.69 1008.43 1008.16 1007.87 1007.56 1007.25 1006.92 1006.57 1006.19 1005.78
1004.35 1004.99 1005.56 1006.06 1006.48 1006.85 1007.18 1007.48 1007.77 1008.06 1008.36 1008.67 1008.97 1009.27 1009.55 1009.78 1009.98 1010.12 1010.20 1010.23 1010.21 1010.16 1010.08 1009.98 1009.87 1009.75 1009.64 1009.52 1009.39 1009.26 1009.10 1008.92 1008.71 1008.48 1008.22 1007.94 1007.64 1007.33 1007.00 1006.67 1006.31 1005.93 1005.52
1004.47 1005.06 1005.57 1006.02 1006.40 1006.72 1007.01 1007.29 1007.55 1007.83 1008.12 1008.42 1008.72 1009.01 1009.29 1009.52 1009.71 1009.85 1009.92 1009.94 1009.91 1009.85 1009.75 1009.64 1009.52 1009.40 1009.28 1009.16 1009.03 1008.89 1008.73 1008.55 1008.34 1008.10 1007.84 1007.55 1007.24 1006.91 1006.58 1006.23 1005.87 1005.50 1005.10
Thickness
5707 5703 5698 5694 5690 5687 5683 5680 5677 5675 5673 5671 5670 5668 5667 5666 5665 5663 5663 5662 5661 5662 5663 5663 5663 5664 5666 5669 5670 5671 5673 5674 5675 5682 5688 5693 5696 5699 5702 5706 5709 5713 5716
5708 5704 5699 5695 5691 5688 5685 5682 5680 5677 5675 5672 5671 5669 5667 5665 5663 5662 5660 5660 5659 5659 5659 5659 5659 5661 5661 5664 5665 5666 5668 5669 5670 5672 5678 5683 5687 5691 5694 5698 5703 5707 5710
5709 5704 5701 5698 5693 5690 5687 5684 5681 5678 5676 5674 5671 5669 5667 5665 5663 5661 5660 5659 5658 5657 5656 5655 5656 5657 5657 5660 5660 5662 5663 5665 5665 5666 5670 5675 5679 5683 5686 5690 5696 5699 5704
5710 5705 5701 5699 5695 5691 5688 5684 5681 5679 5676 5674 5672 5669 5667 5665 5663 5661 5660 5658 5657 5656 5654 5653 5653 5654 5655 5656 5657 5658 5659 5660 5660 5662 5664 5667 5671 5676 5679 5682 5686 5692 5696
5711 5706 5703 5700 5695 5691 5687 5684 5681 5678 5676 5674 5672 5669 5667 5665 5663 5660 5659 5658 5656 5655 5654 5653 5652 5651 5650 5651 5653 5655 5656 5656 5657 5658 5659 5662 5665 5668 5672 5676 5679 5684 5690
5712 5707 5703 5699 5694 5690 5687 5684 5681 5678 5676 5674 5671 5669 5667 5665 5660 5656 5654 5657 5656 5655 5653 5653 5652 5651 5649 5648 5648 5649 5650 5652 5654 5655 5656 5657 5661 5665 5667 5669 5672 5675 5679
5712 5707 5702 5698 5694 5690 5687 5684 5680 5678 5676 5673 5671 5669 5667 5664 5658 5655 5653 5654 5656 5655 5653 5652 5651 5652 5648 5650 5650 5648 5649 5649 5649 5651 5653 5655 5658 5661 5663 5664 5666 5669 5672
5711 5706 5701 5697 5693 5689 5685 5682 5679 5678 5675 5672 5670 5668 5665 5662 5657 5654 5652 5654 5655 5655 5653 5652 5650 5650 5649 5647 5649 5649 5650 5651 5650 5650 5652 5654 5655 5656 5657 5659 5661 5663 5667
5709 5705 5701 5696 5692 5688 5684 5681 5679 5676 5673 5671 5668 5666 5663 5661 5655 5653 5651 5655 5654 5653 5652 5650 5649 5648 5644 5642 5644 5646 5647 5648 5647 5646 5646 5647 5648 5649 5650 5651 5654 5655 5659
5707 5703 5700 5695 5690 5686 5683 5680 5677 5674 5670 5668 5665 5663 5661 5659 5653 5650 5648 5654 5653 5652 5650 5649 5643 5642 5640 5639 5642 5643 5643 5645 5645 5646 5646 5646 5647 5648 5647 5648 5650 5651 5653
5705 5700 5695 5691 5687 5684 5680 5677 5674 5671 5668 5666 5663 5661 5658 5654 5651 5647 5645 5648 5648 5648 5647 5646 5643 5637 5636 5635 5636 5639 5638 5638 5640 5641 5643 5644 5644 5645 5646 5646 5647 5647 5648
5699 5694 5690 5687 5684 5680 5676 5673 5671 5668 5665 5663 5661 5658 5655 5652 5646 5643 5640 5639 5639 5641 5641 5640 5638 5632 5631 5631 5632 5632 5631 5632 5635 5636 5637 5638 5638 5639 5640 5641 5642 5643 5644
5693 5689 5686 5682 5678 5675 5672 5669 5666 5663 5662 5660 5657 5653 5650 5647 5643 5638 5636 5634 5633 5634 5634 5629 5627 5627 5627 5628 5626 5625 5626 5628 5629 5629 5629 5630 5631 5632 5633 5635 5636 5637 5639
5689 5684 5681 5678 5674 5670 5666 5664 5661 5658 5656 5653 5650 5647 5644 5641 5638 5635 5635 5633 5629 5629 5628 5625 5622 5621 5621 5620 5621 5621 5621 5620 5620 5620 5621 5622 5623 5624 5625 5627 5628 5629 5631
5684 5679 5676 5671 5668 5663 5659 5654 5651 5647 5645 5643 5642 5640 5637 5633 5626 5622 5623 5624 5623 5621 5621 5621 5619 5618 5616 5615 5614 5613 5611 5611 5611 5611 5612 5613 5614 5615 5616 5617 5618 5620 5621
5679 5675 5670 5665 5660 5657 5652 5645 5637 5636 5632 5629 5627 5627 5625 5620 5616 5614 5612 5611 5610 5610 5612 5612 5610 5608 5607 5605 5604 5603 5602 5601 5600 5600 5600 5601 5602 5603 5605 5607 5608 5609 5610
5673 5669 5663 5659 5655 5651 5647 5643 5637 5628 5623 5621 5618 5616 5614 5610 5608 5605 5603 5602 5601 5602 5604 5603 5600 5598 5597 5596 5595 5594 5593 5592 5591 5590 5590 5590 5591 5592 5593 5594 5596 5597 5600
5666 5660 5656 5651 5648 5645 5641 5638 5634 5630 5626 5620 5612 5607 5605 5602 5600 5597 5596 5596 5597 5596 5595 5593 5590 5588 5587 5585 5584 5583 5583 5582 5581 5580 5580 5580 5579 5580 5581 5582 5582 5583 5585
5657 5652 5648 5644 5640 5637 5633 5629 5626 5622 5619 5614 5609 5603 5596 5594 5591 5589 5588 5590 5589 5586 5584 5582 5580 5578 5576 5575 5574 5572 5571 5571 5570 5569 5568 5567 5567 5567 5568 5568 5569 5569 5569
5647 5642 5638 5635 5631 5628 5624 5621 5617 5614 5610 5606 5602 5598 5593 5590 5588 5585 5582 5579 5577 5575 5573 5571 5569 5566 5565 5563 5562 5561 5560 5559 5558 5557 5556 5555 5554 5554 5554 5555 5555 5556 5557
5639 5632 5627 5626 5623 5620 5616 5613 5609 5605 5601 5597 5593 5586 5579 5581 5579 5575 5572 5570 5567 5565 5562 5560 5558 5555 5553 5552 5550 5549 5548 5547 5545 5544 5543 5542 5541 5541 5540 5540 5540 5541 5543
5631 5626 5621 5618 5614 5610 5607 5603 5600 5595 5592 5587 5582 5577 5569 5570 5569 5566 5563 5559 5556 5553 5551 5548 5547 5544 5541 5540 5538 5537 5536 5534 5532 5531 5529 5528 5527 5526 5525 5525 5526 5526 5527
5621 5617 5612 5608 5604 5597 5595 5593 5589 5585 5582 5578 5573 5569 5565 5562 5559 5555 5552 5549 5545 5543 5540 5537 5535 5533 5531 5528 5526 5524 5523 5521 5518 5515 5514 5513 5511 5511 5510 5510 5510 5511 5512
5610 5606 5602 5598 5593 5589 5586 5583 5579 5575 5571 5567 5563 5559 5555 5551 5548 5544 5541 5538 5535 5532 5529 5527 5524 5522 5519 5517 5514 5512 5509 5506 5502 5501 5499 5498 5497 5496 5495 5495 5495 5495 5495
5598 5594 5591 5587 5583 5579 5576 5572 5569 5565 5560 5557 5553 5549 5545 5541 5538 5534 5531 5528 5525 5522 5519 5516 5514 5512 5509 5506 5503 5500 5496 5492 5488 5485 5484 5484 5484 5483 5481 5481 5481 5480 5480
5585 5582 5579 5575 5572 5568 5565 5561 5558 5554 5550 5546 5542 5538 5534 5530 5527 5524 5520 5517 5514 5512 5509 5507 5504 5502 5499 5497 5494 5489 5485 5481 5478 5474 5471 5471 5471 5471 5469 5468 5467 5466 5466